Regional Weather Roundup
Issued by NWS

Home | Current Version | Previous Version | Graphics & Text | Print | Product List | Glossary On
Versions: 1 2 3 4 5 6 7 8 9 10 11 12 13 14 15 16 17 18 19 20 21 22 23 24 25 26 27 28 29 30 31 32 33 34 35 36 37 38 39 40 41 42 43 44 45 46 47 48 49 50
000
ASUS43 KOAX 181510
RWRNE

WEATHER ROUNDUP FOR NEBRASKA
NATIONAL WEATHER SERVICE OMAHA NE
900 AM CST THU JAN 18 2018

NOTES: SATELLITE DATA IS BEING USED TO AUGMENT CLOUD COVER ABOVE
       12000 FEET.
       "FAIR" INDICATES FEW OR NO CLOUDS BELOW 12,000 FEET WITH NO
       SIGNIFICANT WEATHER AND/OR OBSTRUCTIONS TO VISIBILITY.


NEZ001>004-019>022-054>056-181600-
NEBRASKA PANHANDLE

CITY           SKY/WX    TMP DP  RH WIND       PRES   REMARKS
SCOTTSBLUFF    PTCLDY    27  20  75 NW7       30.02S WCI  19
ALLIANCE       CLOUDY    20  18  92 W13       29.99S WCI   7
CHADRON        MOCLDY    28  21  75 SW7       29.98F WCI  21
GORDON         FAIR      38  23  56 W18       29.95R WCI  28
KIMBALL        PTCLDY    29  18  63 W9        30.06R WCI  21
SIDNEY         MOCLDY    24  18  77 W6        30.05R WCI  17
$$

NEZ057>060-069>072-079>082-181600-
SOUTHWEST NEBRASKA

CITY           SKY/WX    TMP DP  RH WIND       PRES   REMARKS
NORTH PLATTE   PTCLDY    22  17  81 NW5       30.03R WCI  16
IMPERIAL       PTCLDY    27  18  69 W10       30.05R WCI  17
LEXINGTON      CLEAR     20  16  84 W5        30.04S WCI  14
MCCOOK         CLEAR     23  17  78 W14       30.06S WCI  11
OGALLALA       CLOUDY    23  19  83 W8        30.04R WCI  14
$$

NEZ005>010-023>029-035>040-094-181600-
NORTH CENTRAL NEBRASKA

CITY           SKY/WX    TMP DP  RH WIND       PRES   REMARKS
VALENTINE      CLOUDY    26  21  81 W9        29.93R WCI  17
AINSWORTH      MOCLDY    32  24  72 W12       29.93R WCI  23
BROKEN BOW     CLEAR     29  18  63 VRB5      29.97F WCI  24
O`NEILL        CLEAR     26  20  76 SW9       29.93S WCI  17
ORD            CLEAR     16  12  84 CALM      29.98F
THEDFORD       MOCLDY    33  24  70 W8        29.97R WCI  26
$$

NEZ041-046>049-061>064-073>077-083>087-181600-
SOUTH CENTRAL NEBRASKA

CITY           SKY/WX    TMP DP  RH WIND       PRES   REMARKS
GRAND ISLAND   CLOUDY    21  15  78 SW7       30.04F WCI  12
AURORA         CLOUDY    18  12  78 SW10      30.04F WCI   6
HASTINGS       CLOUDY    16  10  77 SW6       30.04F WCI   7
HEBRON         CLOUDY    20  11  67 S8        30.10F WCI  10
HOLDREGE       CLOUDY    23  17  78 W8        30.05R WCI  14
KEARNEY        CLOUDY    19  14  81 W9        30.05S WCI   8
YORK           CLOUDY    16  12  86 SW12      30.06F WCI   3
$$

NEZ011>018-030>034-042>045-181600-
NORTHEAST NEBRASKA

CITY           SKY/WX    TMP DP  RH WIND       PRES   REMARKS
NORFOLK        CLOUDY    25  17  72 S8        29.97S WCI  16
ALBION         CLOUDY    24  16  74 CALM      29.99F
BLAIR          CLOUDY    21  12  67 SW12      30.03S WCI   9
COLUMBUS       CLOUDY    20  13  74 W5        30.04F WCI  13
FREMONT        CLOUDY    21  12  67 SW6       30.05R WCI  14
TEKAMAH        MOSUNNY   19  11  70 S10       30.05R WCI   7
WAYNE          CLOUDY    22  18  83 S8        29.98S WCI  12
$$

NEZ050>053-065>068-078-088>093-181600-
SOUTHEAST NEBRASKA

CITY           SKY/WX    TMP DP  RH WIND       PRES   REMARKS
LINCOLN        CLOUDY    19   9  65 SW12      30.08F WCI   7
OMAHA EPPLEY   CLOUDY    16   9  74 S8        30.07F WCI   5
BEATRICE       CLOUDY    19  10  67 S9        30.12F WCI   8
FALLS CITY     CLOUDY    17   8  67 S7        30.17F WCI   8
NEBRASKA CITY  MOSUNNY   22  11  65 SW18      30.08F WCI   7
PLATTSMOUTH    MOSUNNY   20  10  67 S15       30.06F WCI   6
$$

NEZ044-045-051>053-067-181600-
OMAHA AREA

CITY           SKY/WX    TMP DP  RH WIND       PRES   REMARKS
OMAHA EPPLEY   CLOUDY    16   9  74 S8        30.07F WCI   5
BLAIR          CLOUDY    21  12  67 SW12      30.03S WCI   9
FREMONT        CLOUDY    21  12  67 SW6       30.05R WCI  14
MILLARD        CLOUDY    23  12  62 S5        30.08S WCI  17
OFFUTT AFB     CLOUDY    18   9  66 S5        30.07F WCI  11
PLATTSMOUTH    MOSUNNY   20  10  67 S15       30.06F WCI   6
WAHOO          FAIR      20  10  65 SW8       30.05S WCI  11
$$



USA.gov is the U.S. government's official web portal to all federal, state and local government web resources and services.